Regional Weather Roundup
Issued by NWS

Home | Current Version | Previous Version | Graphics & Text | Print | Product List | Glossary On
Versions: 1 2 3 4 5 6 7 8 9 10 11 12 13 14 15 16 17 18 19 20 21 22 23 24 25 26 27 28 29 30 31 32 33 34 35 36 37 38 39 40 41 42 43 44 45 46 47 48 49 50
859
ASUS43 KFSD 182310
RWRSD

WEATHER ROUNDUP FOR SOUTH DAKOTA
NATIONAL WEATHER SERVICE SIOUX FALLS SD
500 PM CST THU JAN 18 2018

NOTE: "FAIR" INDICATES FEW OR NO CLOUDS BELOW 12,000 FEET WITH NO
SIGNIFICANT WEATHER AND/OR OBSTRUCTIONS TO VISIBILITY.


SDZ001>005-009-010-012>017-190000-
NORTHWEST AND NORTH CENTRAL SOUTH DAKOTA

CITY           SKY/WX    TMP DP  RH WIND       PRES   REMARKS
BUFFALO          N/A     43  28  55 W5        29.67S
FAITH            N/A     40  29  64 S14       29.74F
MOBRIDGE       CLOUDY    37  28  70 SE9       29.71F
$$

SDZ012>016-024>037-041>051-057-063-072>074-190000-
SOUTHWEST AND SOUTH CENTRAL SOUTH DAKOTA

CITY           SKY/WX    TMP DP  RH WIND       PRES   REMARKS
RAPID CTY ARPT CLOUDY    46  28  49 E5        29.77F
PIERRE         CLOUDY    37  27  67 S3        29.78S
CUSTER         CLOUDY    47  19  33 W12       29.85S
ELLSWORTH AFB  CLOUDY    49  25  40 SW5       29.76F
PHILIP         CLOUDY    48  30  49 SW3       29.78S
PINE RIDGE     MOCLDY    46  29  51 SW8       29.84F
SPEARFISH        N/A     57  23  26 VRB5      29.77F
WINNER         FAIR      46  31  55 SW9       29.81S
$$

SDZ004>011-016>023-039-040-190000-
NORTHEAST SOUTH DAKOTA

CITY           SKY/WX    TMP DP  RH WIND       PRES   REMARKS
ABERDEEN       MOCLDY    38  28  67 S8        29.75F
WATERTOWN      CLOUDY    35  28  75 SW5       29.76S
BROOKINGS      CLOUDY    35  28  75 SW7       29.80R WCI  29
SISSETON         N/A     38  26  62 CALM      29.74S
$$

SDZ017-020-022-023-036>040-048>070-190000-
SOUTHEAST SOUTH DAKOTA

CITY           SKY/WX    TMP DP  RH WIND       PRES   REMARKS
SIOUX FALLS    CLOUDY    39  29  67 CALM      29.83S
HURON          CLOUDY    37  30  75 S7        29.78F
CHAMBERLAIN    CLOUDY    39  33  77 CALM      29.80F
MITCHELL       CLOUDY    39  31  72 SW6       29.82F
YANKTON        CLOUDY    41  26  55 SW3       29.85R
$$

ABBREVIATIONS USED IN REMARKS
   TC - TEMPERATURE IN CELSIUS
  WCI - WIND CHILL INDEX
   HX - HEAT INDEX
  VSB - VISIBILITY





USA.gov is the U.S. government's official web portal to all federal, state and local government web resources and services.